TimeEST,TemperatureF,Dew PointF,Humidity,Sea Level PressureIn,VisibilityMPH,Wind Direction,Wind SpeedMPH,Gust SpeedMPH,PrecipitationIn,Events,Conditions,WindDirDegrees,DateUTC
12:54 AM,21.0,10.9,65,30.46,-9999.0,West,12.7,-,N/A,,Unknown,270,2013-11-29 05:54:00
1:54 AM,21.9,10.9,63,30.48,-9999.0,West,8.1,-,N/A,,Unknown,260,2013-11-29 06:54:00
2:54 AM,23.0,12.0,63,30.48,-9999.0,West,6.9,-,N/A,,Unknown,270,2013-11-29 07:54:00
3:54 AM,23.0,12.0,63,30.48,-9999.0,West,8.1,-,N/A,,Unknown,270,2013-11-29 08:54:00
4:54 AM,23.0,12.9,65,30.50,-9999.0,West,8.1,-,N/A,,Unknown,260,2013-11-29 09:54:00
5:54 AM,23.0,12.9,65,30.51,-9999.0,West,9.2,-,N/A,,Unknown,260,2013-11-29 10:54:00
6:54 AM,21.0,12.9,71,30.53,-9999.0,WNW,6.9,-,N/A,,Unknown,290,2013-11-29 11:54:00
7:54 AM,23.0,14.0,68,30.56,-9999.0,NW,8.1,-,N/A,,Unknown,310,2013-11-29 12:54:00
8:54 AM,25.0,14.0,63,30.58,-9999.0,NW,8.1,-,N/A,,Unknown,310,2013-11-29 13:54:00
1:54 PM,30.9,8.1,38,30.56,-9999.0,NW,11.5,20.7,N/A,,Unknown,310,2013-11-29 18:54:00
2:54 PM,30.0,7.0,38,30.58,-9999.0,WNW,11.5,20.7,N/A,,Unknown,300,2013-11-29 19:54:00
3:54 PM,28.9,7.0,40,30.60,-9999.0,NW,8.1,-,N/A,,Unknown,320,2013-11-29 20:54:00
4:54 PM,27.0,6.1,41,30.63,-9999.0,NW,9.2,-,N/A,,Unknown,320,2013-11-29 21:54:00
5:54 PM,26.1,5.0,41,30.66,-9999.0,NNW,9.2,-,N/A,,Unknown,340,2013-11-29 22:54:00
6:54 PM,24.1,1.9,38,30.69,-9999.0,NNW,8.1,-,N/A,,Unknown,340,2013-11-29 23:54:00
7:54 PM,23.0,3.0,42,30.70,-9999.0,North,9.2,-,N/A,,Unknown,360,2013-11-30 00:54:00
8:54 PM,21.9,3.0,44,30.71,-9999.0,North,10.4,-,N/A,,Unknown,350,2013-11-30 01:54:00
9:54 PM,21.0,5.0,50,30.72,-9999.0,North,8.1,20.7,N/A,,Unknown,350,2013-11-30 02:54:00
10:54 PM,19.9,3.9,50,30.75,-9999.0,North,8.1,-,N/A,,Unknown,350,2013-11-30 03:54:00
11:54 PM,19.0,5.0,54,30.75,-9999.0,NNW,10.4,-,N/A,,Unknown,340,2013-11-30 04:54:00